Regional Weather Roundup
Issued by NWS

Home | Current Version | Previous Version | Text Only | Print | Product List | Glossary On
Versions: 1 2 3 4 5 6 7 8 9 10 11 12 13 14 15 16 17 18 19 20 21 22 23 24 25 26 27 28 29 30 31 32 33 34 35 36 37 38 39 40 41 42 43 44 45 46 47 48 49 50
392
ASUS43 KLMK 242110
RWRKY
KENTUCKY REGIONAL WEATHER ROUNDUP
NATIONAL WEATHER SERVICE LOUISVILLE KY
500 PM EDT TUE APR 24 2018

NOTE "FAIR" INDICATES FEW OR NO CLOUDS BELOW 12,000 FEET
WITH NO SIGNIFICANT WEATHER AND/OR OBSTRUCTIONS TO VISIBILITY.

KYZ001>023-026-027-061>063-070>075-242200-
WESTERN AND SOUTH CENTRAL KENTUCKY

CITY           SKY/WX    TMP DP  RH WIND       PRES   REMARKS
PADUCAH        CLOUDY    63  55  75 W8G20     29.93F
HENDERSON      CLOUDY    58  55  90 NW9       29.93F
OWENSBORO      CLOUDY    58  53  84 NW10      29.92F
HOPKINSVILLE   NOT AVBL
BOWLING GREEN  CLOUDY    61  56  83 NW8       29.89F
GLASGOW        CLOUDY    59  54  83 W8        29.88S
$$

KYZ024-025-028>034-038-045-046-053-242200-
NORTH CENTRAL KENTUCKY

CITY           SKY/WX    TMP DP  RH WIND       PRES   REMARKS
LOUISVILLE/SDF LGT RAIN  58  55  90 NW8       29.89S
LOUISVILLE/LOU LGT RAIN  58  56  93 NW3       29.90S
FORT KNOX      LGT RAIN  57  55  93 NW7       29.89S
$$

KYZ035>037-039>044-047>052-055>060-089>105-242200-
NORTHEAST KENTUCKY

CITY           SKY/WX    TMP DP  RH WIND       PRES   REMARKS
LEXINGTON      CLOUDY    58  53  84 NW5       29.88S
COVINGTON      CLOUDY    56  56 100 NE6       29.89S FOG
FRANKFORT      CLOUDY    59  53  80 NW6       29.87S
$$

KYZ054-064>069-076>088-106>120-242200-
SOUTHEAST KENTUCKY

CITY           SKY/WX    TMP DP  RH WIND       PRES   REMARKS
JACKSON        LGT RAIN  57  54  89 NW6       29.85F
LONDON         CLOUDY    63  54  72 N7        29.84F
SOMERSET       CLOUDY    63  52  67 N7        29.86S
MIDDLESBORO    CLOUDY    65  54  69 N5        29.82F
MONTICELLO     CLOUDY    63  54  72 N14G20    29.86F
$$





USA.gov is the U.S. government's official web portal to all federal, state and local government web resources and services.